Weather History for Jefferson City, MO

Change the Weather History Date:

Saturday, December 1, 2012

  Actual Average Record
Temperature  
Mean Temperature 56 °F -  
Max Temperature 68 °F 49 °F 72 °F (1982)
Min Temperature 44 °F 27 °F 3 °F (1929)
Degree Days  
Heating Degree Days 9    
Growing Degree Days 6 (Base 50)    
Moisture  
Dew Point 51 °F    
Average Humidity 71    
Maximum Humidity 89    
Minimum Humidity 60    
Precipitation  
Precipitation 0.00 in - - ()
Sea Level Pressure  
Sea Level Pressure 29.94 in    
Wind  
Wind Speed 8 mph (SE)    
Max Wind Speed 16 mph    
Max Gust Speed 21 mph    
Visibility 9 miles    
Events      
Averages and records for this station are not official NWS values.
T = Trace of Precipitation, MM = Missing Value Source: NWS Daily Summary

Daily Weather History Graph

Daily Weather History Graph

Search for Another Location

Airport:

Trip Planner

Search our weather history database for the weather conditions in past years. The results will help you decide how hot, cold, wet, or windy it might be!

Date:

Astronomy

Dec. 01, 2012 Rise Set
Actual Time 7:07 AM CST 4:47 PM CST
Civil Twilight 6:38 AM CST 5:17 PM CST
Nautical Twilight 6:05 AM CST 5:49 PM CST
Astronomical Twilight 5:33 AM CST 6:21 PM CST
Moon 7:37 PM CST (12/1) 9:21 AM CST (12/1)
Length of Visible Light 10h 38m
Length of Day
9h 39m
Waning Gibbous, 91% of the Moon is Illuminated
Dec 1
Waning Gibbous
Dec 6
Last Quarter
Dec 13
New
Dec 19
First Quarter
Dec 28
Full

Hourly Weather History & Observations

Time (CST) Temp. Windchill Dew Point Humidity Pressure Visibility Wind Dir Wind Speed Gust Speed Precip Events Conditions
12:53 AM 44.1 °F 40.8 °F 39.9 °F 85% 30.04 in 8.0 mi SE 5.8 mph - N/A   Clear
1:53 AM 46.0 °F 42.5 °F 41.0 °F 83% 30.05 in 10.0 mi ESE 6.9 mph - N/A   Clear
2:53 AM 50.0 °F - 44.1 °F 80% 30.05 in 10.0 mi ESE 4.6 mph - N/A   Clear
3:53 AM 52.0 °F - 46.9 °F 83% 30.04 in 9.0 mi East 5.8 mph - N/A   Overcast
4:53 AM 48.0 °F - 45.0 °F 89% 30.03 in 7.0 mi East 6.9 mph - N/A   Mostly Cloudy
5:53 AM 53.1 °F - 48.9 °F 86% 30.02 in 7.0 mi ESE 6.9 mph - N/A   Overcast
7:53 AM 54.0 °F - 48.9 °F 83% 30.00 in 6.0 mi ESE 4.6 mph - N/A   Haze
8:53 AM 57.9 °F - 51.1 °F 78% 29.99 in 8.0 mi SE 9.2 mph - N/A   Scattered Clouds
9:53 AM 62.1 °F - 52.0 °F 70% 29.99 in 10.0 mi SSE 10.4 mph - N/A   Scattered Clouds
10:14 AM 62.6 °F - 51.8 °F 68% 30.00 in 10.0 mi SSE 10.4 mph 18.4 mph N/A   Overcast
10:53 AM 64.0 °F - 53.1 °F 67% 29.96 in 10.0 mi South 12.7 mph 17.3 mph N/A   Overcast
11:53 AM 66.9 °F - 54.0 °F 63% 29.93 in 10.0 mi South 11.5 mph 19.6 mph N/A   Scattered Clouds
12:08 PM 66.2 °F - 53.6 °F 64% 29.95 in 10.0 mi South 11.5 mph 18.4 mph N/A   Mostly Cloudy
12:40 PM 68.0 °F - 53.6 °F 60% 29.93 in 10.0 mi South 16.1 mph 20.7 mph N/A   Scattered Clouds
12:53 PM 68.0 °F - 54.0 °F 61% 29.90 in 10.0 mi South 13.8 mph 18.4 mph N/A   Scattered Clouds
3:53 PM 68.0 °F - 54.0 °F 61% 29.86 in 10.0 mi SSE 6.9 mph - N/A   Overcast
4:53 PM 66.9 °F - 54.0 °F 63% 29.85 in 10.0 mi SE 6.9 mph - N/A   Scattered Clouds
5:53 PM 66.0 °F - 54.0 °F 65% 29.86 in 10.0 mi ESE 6.9 mph - N/A   Overcast
6:53 PM 68.0 °F - 54.0 °F 61% 29.87 in 10.0 mi SSE 8.1 mph 16.1 mph N/A   Mostly Cloudy
7:53 PM 68.0 °F - 55.0 °F 63% 29.86 in 10.0 mi South 9.2 mph 20.7 mph N/A   Overcast
8:53 PM 68.0 °F - 55.0 °F 63% 29.86 in 10.0 mi South 10.4 mph - N/A   Overcast
9:53 PM 66.9 °F - 55.0 °F 66% 29.87 in 10.0 mi SSE 9.2 mph - N/A   Overcast
10:53 PM 66.0 °F - 55.0 °F 68% 29.88 in 10.0 mi SSE 5.8 mph - N/A   Overcast
11:53 PM 66.0 °F - 55.0 °F 68% 29.88 in 10.0 mi SSE 3.5 mph - N/A   Overcast